Beckley, WV

5:16 PM EDT on June 28, 2017 (GMT -0400)
Raleigh County Memorial

Weather History for KBKW - April, 2014

Change the Weather History Date:

Tuesday, April 15, 2014

  Actual Average Record
Temperature  
Mean Temperature 43 °F 52 °F  
Max Temperature 60 °F 63 °F 82 °F (2012)
Min Temperature 26 °F 41 °F 17 °F (1957)
Degree Days  
Heating Degree Days 22 13  
Month to date heating degree days 154 230  
Since 1 July heating degree days 5180 4943  
Cooling Degree Days 0 0  
Month to date cooling degree days 5 0  
Year to date cooling degree days 5 1  
Moisture  
Dew Point 31 °F    
Average Humidity 78    
Maximum Humidity 92    
Minimum Humidity 63    
Precipitation  
Precipitation 0.16 in 0.11 in 1.33 in (1956)
Month to date precipitation 1.52 1.62  
Year to date precipitation 9.09 10.76  
Snow  
Snow 0.60 in - - ()
Month to date snowfall 0.6  
Since 1 September snowfall 76.3  
Snow Depth 0.00 in    
Sea Level Pressure  
Sea Level Pressure 29.87 in    
Wind  
Wind Speed 13 mph (NW)    
Max Wind Speed 25 mph    
Max Gust Speed 32 mph    
Visibility 5 miles    
Events Fog , Rain , Snow    
T = Trace of Precipitation, MM = Missing Value Source: NWS Daily Summary

Daily Weather History Graph

Daily Weather History Graph

Search for Another Location

Airport or City:

Trip Planner

Search our weather history database for the weather conditions in past years. The results will help you decide how hot, cold, wet, or windy it might be!

Date:

Astronomy

Apr. 15, 2014 Rise Set
Actual Time 6:49 AM EDT 8:00 PM EDT
Civil Twilight 6:22 AM EDT 8:27 PM EDT
Nautical Twilight 5:49 AM EDT 8:59 PM EDT
Astronomical Twilight 5:16 AM EDT 9:33 PM EDT
Moon 8:39 PM EDT (4/15) 6:56 AM EDT (4/15)
Length of Visible Light 14h 05m
Length of Day
13h 10m
Full, 100% of the Moon is Illuminated
Apr 15
Full
Apr 22
Last Quarter
Apr 29
New
May 6
First Quarter
May 14
Full

Hourly Weather History & Observations

Time (EDT) Temp. Windchill Dew Point Humidity Pressure Visibility Wind Dir Wind Speed Gust Speed Precip Events Conditions
12:51 AM 60.1 °F - 54.0 °F 80% 29.68 in 10.0 mi SSE 12.7 mph 17.3 mph 0.00 in Rain Light Rain
1:51 AM 59.0 °F - 53.6 °F 82% 29.73 in 10.0 mi South 9.2 mph - N/A   Mostly Cloudy
2:51 AM 59.0 °F - 53.1 °F 81% 29.63 in 10.0 mi South 6.9 mph - N/A   Scattered Clouds
3:51 AM 60.1 °F - 52.0 °F 75% 29.62 in 10.0 mi SSW 9.2 mph - N/A   Overcast
4:51 AM 60.1 °F - 52.0 °F 75% 29.59 in 10.0 mi SW 9.2 mph - 0.00 in   Scattered Clouds
5:51 AM 60.1 °F - 52.0 °F 75% 29.58 in 10.0 mi SSW 10.4 mph - 0.00 in Rain Light Rain
6:51 AM 59.0 °F - 51.1 °F 75% 29.58 in 10.0 mi SW 11.5 mph - 0.00 in Rain Light Rain
7:29 AM 51.1 °F - 48.0 °F 89% 29.67 in 10.0 mi NNW 17.3 mph 23.0 mph 0.00 in Rain Light Rain
7:44 AM 46.9 °F - 43.0 °F 86% 29.70 in 10.0 mi NW 17.3 mph 25.3 mph 0.00 in Rain Light Rain
7:51 AM 45.0 °F 37.1 °F 42.1 °F 90% 29.70 in 10.0 mi WNW 19.6 mph 32.2 mph 0.00 in Rain Light Rain
8:51 AM 42.1 °F 35.7 °F 39.0 °F 89% 29.74 in 10.0 mi NNW 11.5 mph - 0.01 in Rain Light Rain
9:14 AM 41.0 °F 34.3 °F 37.9 °F 89% 29.77 in 2.0 mi NW 11.5 mph - 0.01 in Rain Light Rain
9:26 AM 39.9 °F 32.5 °F 37.0 °F 89% 29.77 in 3.0 mi NW 12.7 mph - 0.02 in Rain Light Rain
9:33 AM 39.9 °F 32.1 °F 37.0 °F 89% 29.78 in 5.0 mi NW 13.8 mph - 0.02 in Rain Light Rain
9:40 AM 39.0 °F 31.4 °F 37.0 °F 93% 29.77 in 7.0 mi NNW 12.7 mph - 0.02 in Rain Light Rain
9:51 AM 39.0 °F 31.0 °F 36.0 °F 89% 29.77 in 9.0 mi NNW 13.8 mph - 0.02 in   Overcast
10:36 AM 37.0 °F 28.1 °F 34.0 °F 89% 29.80 in 1.8 mi NNW 15.0 mph - 0.00 in Snow Light Snow
10:51 AM 36.0 °F 27.1 °F 34.0 °F 93% 29.81 in 1.8 mi NNW 13.8 mph - 0.00 in Rain Light Rain
10:58 AM 36.0 °F 27.5 °F 34.0 °F 93% 29.81 in 2.5 mi North 12.7 mph - 0.00 in Rain Light Rain
11:05 AM 36.0 °F 27.5 °F 34.0 °F 93% 29.82 in 4.0 mi NNW 12.7 mph - 0.00 in   Overcast
11:22 AM 36.0 °F 28.0 °F 34.0 °F 93% 29.82 in 2.5 mi NNW 11.5 mph - 0.00 in Snow Light Snow
11:44 AM 36.0 °F 28.0 °F 33.1 °F 89% 29.84 in 4.0 mi NW 11.5 mph - 0.00 in Snow Light Snow
11:51 AM 36.0 °F 27.5 °F 34.0 °F 93% 29.84 in 4.0 mi WNW 12.7 mph - 0.00 in Snow Light Snow
12:39 PM 34.0 °F 23.4 °F 30.0 °F 85% 29.87 in 5.0 mi NW 17.3 mph 24.2 mph 0.01 in Snow Light Snow
12:51 PM 33.8 °F 24.8 °F 30.2 °F 87% 29.85 in 1.5 mi NNW 12.7 mph 23.0 mph N/A Snow Light Snow
1:18 PM 32.0 °F 23.6 °F 28.4 °F 87% 29.87 in 0.8 mi NW 10.4 mph - N/A Snow Light Snow
1:28 PM 30.9 °F 21.7 °F 28.0 °F 89% 29.88 in 0.5 mi WNW 11.5 mph - 0.01 in Fog , Snow Snow
1:37 PM 30.9 °F 21.7 °F 28.9 °F 92% 29.89 in 0.5 mi WNW 11.5 mph - 0.02 in Fog , Snow Snow
1:43 PM 30.9 °F 22.2 °F 28.9 °F 92% 29.88 in 0.2 mi NW 10.4 mph - 0.03 in Fog , Snow Snow
1:51 PM 30.2 °F 20.2 °F 28.4 °F 93% 29.89 in 0.2 mi WNW 12.7 mph - N/A Fog , Snow Heavy Snow
2:16 PM 30.9 °F 20.7 °F 28.0 °F 89% 29.89 in 0.5 mi NW 13.8 mph 19.6 mph 0.04 in Fog , Snow Snow
2:24 PM 30.9 °F 21.2 °F 28.0 °F 89% 29.87 in 0.5 mi NW 12.7 mph - 0.04 in Fog , Snow Snow
2:33 PM 30.0 °F 21.1 °F 28.0 °F 92% 29.89 in 0.5 mi WNW 10.4 mph - 0.05 in Fog , Snow Snow
2:51 PM 30.9 °F 22.8 °F 28.0 °F 89% 29.91 in 1.0 mi NW 9.2 mph - 0.06 in Snow Light Snow
3:08 PM 30.9 °F 20.7 °F 27.0 °F 85% 29.90 in 3.0 mi NW 13.8 mph - 0.00 in Snow Light Snow
3:12 PM 30.9 °F 20.7 °F 26.1 °F 82% 29.90 in 2.5 mi NW 13.8 mph - 0.00 in Snow Light Snow
3:25 PM 30.9 °F 19.8 °F 27.0 °F 85% 29.90 in 1.2 mi NW 16.1 mph - 0.00 in Snow Light Snow
3:45 PM 30.2 °F 20.2 °F 26.6 °F 86% 29.91 in 0.8 mi NW 12.7 mph - 0.00 in Snow Light Snow
3:51 PM 30.2 °F 20.2 °F 26.6 °F 86% 29.91 in 0.5 mi WNW 12.7 mph - N/A Fog , Snow Snow
4:28 PM 30.0 °F 19.1 °F 26.1 °F 85% 29.89 in 1.5 mi NNW 15.0 mph 21.9 mph 0.01 in Snow Light Snow
4:34 PM 30.0 °F 18.7 °F 26.1 °F 85% 29.90 in 3.0 mi NNW 16.1 mph 25.3 mph 0.01 in Snow Light Snow
4:51 PM 30.9 °F 22.2 °F 27.0 °F 85% 29.93 in 10.0 mi NNW 10.4 mph - 0.01 in   Overcast
5:19 PM 30.9 °F 21.2 °F 27.0 °F 85% 29.91 in 2.0 mi NNW 12.7 mph - 0.00 in Snow Light Snow
5:25 PM 30.0 °F 20.5 °F 27.0 °F 88% 29.92 in 0.8 mi NNW 11.5 mph - 0.00 in Snow Light Snow
5:31 PM 30.0 °F 21.7 °F 27.0 °F 88% 29.93 in 1.0 mi NW 9.2 mph - 0.01 in Snow Light Snow
5:37 PM 30.0 °F 19.5 °F 27.0 °F 88% 29.92 in 3.0 mi North 13.8 mph - 0.01 in Snow Light Snow
5:44 PM 30.0 °F 21.1 °F 26.1 °F 85% 29.95 in 2.0 mi NW 10.4 mph - 0.01 in Snow Light Snow
5:47 PM 30.2 °F 18.1 °F 26.6 °F 86% 29.95 in 1.8 mi NNW 18.4 mph 25.3 mph 0.01 in Snow Light Snow
5:51 PM 30.0 °F 17.9 °F 26.1 °F 85% 29.97 in 1.5 mi NNW 18.4 mph 26.5 mph 0.01 in Snow Light Snow
6:04 PM 30.0 °F 18.7 °F 25.0 °F 82% 29.94 in 3.0 mi NNW 16.1 mph 24.2 mph 0.00 in Snow Light Snow
6:15 PM 30.0 °F 18.7 °F 25.0 °F 82% 29.95 in 10.0 mi NW 16.1 mph 24.2 mph 0.00 in   Overcast
6:34 PM 30.0 °F 20.5 °F 23.0 °F 75% 29.96 in 10.0 mi NW 11.5 mph 21.9 mph 0.00 in   Overcast
6:51 PM 30.0 °F 19.5 °F 23.0 °F 75% 29.98 in 10.0 mi NW 13.8 mph 29.9 mph 0.00 in   Overcast
7:06 PM 30.0 °F 18.7 °F 23.0 °F 75% 29.97 in 10.0 mi NW 16.1 mph 28.8 mph 0.00 in   Overcast
7:51 PM 28.9 °F 17.7 °F 21.0 °F 72% 30.05 in 10.0 mi NNW 15.0 mph - 0.00 in   Overcast
8:17 PM 28.9 °F 17.3 °F 21.9 °F 75% 30.02 in 10.0 mi NW 16.1 mph 24.2 mph N/A   Overcast
8:51 PM 28.9 °F 18.2 °F 21.9 °F 75% 30.11 in 9.0 mi NNW 13.8 mph 23.0 mph 0.00 in   Overcast
9:02 PM 28.9 °F 17.7 °F 21.0 °F 72% 30.05 in 10.0 mi NNW 15.0 mph 23.0 mph N/A   Overcast
9:51 PM 28.0 °F 17.0 °F 17.1 °F 63% 30.15 in 10.0 mi NW 13.8 mph 27.6 mph N/A   Overcast
10:29 PM 28.0 °F 16.1 °F 17.1 °F 63% 30.09 in 10.0 mi NW 16.1 mph 25.3 mph N/A   Overcast
10:46 PM 28.4 °F 17.0 °F 15.8 °F 59% 30.10 in 10.0 mi NW 15.0 mph 31.1 mph N/A   Overcast
10:51 PM 27.0 °F 14.3 °F 16.0 °F 63% 30.18 in 10.0 mi NW 17.3 mph 25.3 mph N/A   Overcast
11:51 PM 27.0 °F 15.6 °F 15.1 °F 61% 30.18 in 10.0 mi NNW 13.8 mph - N/A   Overcast